Regional Weather Roundup
Issued by NWS

Home | Current Version | Previous Version | Graphics & Text | Print | Product List | Glossary On
Versions: 1 2 3 4 5 6 7 8 9 10 11 12 13 14 15 16 17 18 19 20 21 22 23 24 25 26 27 28 29 30 31 32 33 34 35 36 37 38 39 40 41 42 43 44 45 46 47
000
ASUS45 KCYS 280110
RWRWY

WYOMING REGIONAL WEATHER ROUNDUP
NATIONAL WEATHER SERVICE CHEYENNE WY
700 PM MDT THU AUG 27 2015

NOTE:  "FAIR" INDICATES FEW OR NO CLOUDS BELOW 12,000 FEET
WITH NO SIGNIFICANT WEATHER AND/OR OBSTRUCTIONS TO VISIBILITY.

WYZ001-280200-
YELLOWSTONE NATIONAL PARK

CITY           SKY/WX    TMP DP  RH WIND       PRES   REMARKS
LK YELLOWSTONE   N/A     51  47  86 CALM      30.40F
W YELLOWSTONE  NOT AVBL

$$
WYZ002>013-054>058-071-098>099-280200-
NORTHERN WYOMING

CITY           SKY/WX    TMP DP  RH WIND       PRES   REMARKS
JACKSON        MOSUNNY   66  54  63 VRB5      30.26S
CODY           PTSUNNY   63  50  63 SW13G21   30.25R
GREYBULL       MOCLDY    73  46  38 N16G23    30.13R HAZE
WORLAND        MOCLDY    72  46  39 NW21G29   30.16R THUNDER HAZE
SHERIDAN       FAIR      78  48  34 NW7       30.06R
BUFFALO        FAIR      77  46  33 N13G23    30.13R
GILLETTE       FAIR      72  54  53 W6        30.04S
HULETT         FAIR      79  54  41 S3        30.04S
NEWCASTLE      FAIR      79  43  27 N6        30.04S

$$
WYZ014>020-022>026-101>103-280200-
CENTRAL WYOMING

CITY           SKY/WX    TMP DP  RH WIND       PRES   REMARKS
BIG PINEY      FAIR      69  45  41 W9        30.32F
PINEDALE       FAIR      70  45  40 W14       30.33R
DUBOIS         LGT RAIN  61  39  44 E7        30.34R
LANDER         FAIR      75  45  34 NE3       30.18R
RIVERTON       FAIR      76  46  34 NW3       30.19S
CASPER         CLOUDY    75  45  34 N5        30.14S
DOUGLAS        CLOUDY    77  42  28 N5        30.12S

$$
WYZ021-027>030-104>119-280200-
SOUTHERN WYOMING

CITY           SKY/WX    TMP DP  RH WIND       PRES   REMARKS
EVANSTON       FAIR      69  38  32 N22G29    30.36F
KEMMERER       MOCLDY    61  37  41 W10       30.36F
FORT BRIDGER   CLEAR     68  37  32 NW25G35   30.37S
ROCK SPRINGS   MOCLDY    68  42  38 NE16      30.30R
DIXON          MOCLDY    68  43  39 N28G41    30.29R
RAWLINS        FAIR      67  52  58 NE12      30.25R
SARATOGA       FAIR      64  55  72 CALM      30.27F
LARAMIE        CLOUDY    67  48  50 N12       30.27S
CHEYENNE       FAIR      72  49  44 N12       30.19R
TORRINGTON     FAIR      77  51  40 NE9       30.04S
PINE BLUFFS    CLOUDY    72  52  49 NW7       30.12S

$$



USA.gov is the U.S. government's official web portal to all federal, state and local government web resources and services.